Location: Fauquembergues
(50.6005°N, 2.0987°E)
Time: 03:49:26
(UTC+00:00)

Cosmos 1140 Rocket - Visible Passes

Search period start: 23 October 2020 00:00
Search period end: 02 November 2020 00:00
Orbit: 745 x 766 km, 74.1° (Epoch: 22 October)

Date Brightness Start Highest point End Pass type
(mag) Time Alt. Az. Time Alt. Az. Time Alt. Az.
24 Oct 5.5 05:52:22 10° SSE 05:56:59 35° ESE 06:01:37 10° NE visible
24 Oct 7.2 17:57:42 10° WNW 17:58:59 11° W 18:00:16 10° WSW visible
25 Oct 6.4 05:12:50 10° SE 05:16:35 21° E 05:20:19 10° NE visible
25 Oct 6.6 17:15:07 10° NW 17:18:43 19° W 17:22:19 10° SW visible
26 Oct 6.9 04:34:31 10° ESE 04:36:17 12° E 04:38:05 10° ENE visible
27 Oct 4.8 05:31:43 10° S 05:36:33 44° ESE 05:41:26 10° NE visible
28 Oct 5.8 04:51:54 10° SSE 04:56:06 26° E 05:00:19 10° NE visible
29 Oct 6.5 04:12:51 10° SE 04:15:46 15° E 04:18:41 10° ENE visible
29 Oct 3.5 05:51:41 10° SSW 05:56:49 86° WNW 06:01:59 10° NNE visible
30 Oct 4.2 05:11:10 10° S 05:16:10 57° ESE 05:21:13 10° NNE visible
31 Oct 5.2 04:31:06 10° SSE 04:35:39 33° ESE 04:40:13 10° NE visible
01 Nov 6.0 03:51:38 10° SE 03:55:15 20° E 03:58:53 10° NE visible
01 Nov 3.4 05:31:24 10° SSW 05:36:30 69° WNW 05:41:39 10° NNE visible
